Powrót do katalogu

STARLINK-33817

AktywnyŁącznośćVLEO
NORAD 63583·PAYLOAD·🇺🇸 United States

Wystrzelony Apr 14, 2025 z Cape Canaveral Space Force Station

Loading…

Następne Przeloty (najbliższe 24 godziny)

TLE

ŚwieżeSource: CelesTrak SupGP

Epoka: Sep 14, 2026, 20:44 UTC

1 63583C 25076Q   26257.86437500 -.00015607  00000+0 -56529-3 0  2577
2 63583  43.0022 332.9930 0001360 273.9511 177.2929 15.27586516    19

Śledź STARLINK-33817 w czasie rzeczywistym z AllMySat

Download on the App Store